Weather History for KSVN - October, 2012

Change the Weather History Date:

Monday, October 8, 2012

  Actual Average (KSAV) Record (KSAV)
Temperature  
Mean Temperature 65 °F 70 °F  
Max Temperature 73 °F 80 °F 94 °F (1925)
Min Temperature 57 °F 60 °F 42 °F (1991)
Degree Days  
Heating Degree Days 0 1  
Month to date heating degree days 6  
Since 1 July heating degree days 8  
Cooling Degree Days 0 6  
Month to date cooling degree days 58  
Year to date cooling degree days 2324  
Growing Degree Days 15 (Base 50)    
Moisture  
Dew Point 62 °F    
Average Humidity 91    
Maximum Humidity 100    
Minimum Humidity 80    
Precipitation  
Precipitation 0.08 in 0.14 in 2.10 in (1952)
Month to date precipitation 1.21  
Year to date precipitation 40.16  
Sea Level Pressure  
Sea Level Pressure 30.03 in    
Wind  
Wind Speed 8 mph (North)    
Max Wind Speed 13 mph    
Max Gust Speed 21 mph    
Visibility 10 miles    
Events Rain    
T = Trace of Precipitation, MM = Missing Value Source: NWS Daily Summary

Daily Weather History Graph

Daily Weather History Graph

Search for Another Location

Airport or City:

Trip Planner

Search our weather history database for the weather conditions in past years. The results will help you decide how hot, cold, wet, or windy it might be!

Date:

Astronomy

Oct. 08, 2012 Rise Set
Actual Time 7:23 AM EDT 6:59 PM EDT
Civil Twilight 6:58 AM EDT 7:24 PM EDT
Nautical Twilight 6:30 AM EDT 7:52 PM EDT
Astronomical Twilight 6:02 AM EDT 8:21 PM EDT
Moon 12:24 AM EDT (10/8) 2:26 PM EDT (10/8)
Length of Visible Light 12h 25m
Length of Day
11h 36m
Waning Gibbous, 46% of the Moon is Illuminated
Oct 8
Waning Gibbous
Oct 15
New
Oct 21
First Quarter
Oct 29
Full
Nov 6
Last Quarter

Hourly Weather History & Observations

Time (EDT) Temp. Dew Point Humidity Pressure Visibility Wind Dir Wind Speed Gust Speed Precip Events Conditions
12:55 AM 72.3 °F 70.9 °F 95% 29.99 in 10.0 mi West 5.8 mph - N/A   Mostly Cloudy
1:55 AM 72.3 °F 70.5 °F 94% 30.00 in 10.0 mi Calm Calm - N/A   Scattered Clouds
2:55 AM 73.0 °F 71.2 °F 94% 29.98 in 10.0 mi North 4.6 mph - N/A   Mostly Cloudy
3:53 AM 71.6 °F 69.8 °F 94% 29.97 in 10.0 mi NNE 8.1 mph - N/A   Overcast
3:55 AM 71.6 °F 69.3 °F 92% 29.97 in 10.0 mi North 6.9 mph - N/A   Overcast
4:02 AM 71.6 °F 69.8 °F 94% 29.98 in 10.0 mi North 8.1 mph - N/A   Overcast
4:32 AM 69.8 °F 68.0 °F 94% 29.99 in 10.0 mi NNE 9.2 mph - N/A   Overcast
4:43 AM 69.8 °F 66.2 °F 88% 29.99 in 10.0 mi NNE 9.2 mph - N/A   Overcast
4:55 AM 68.9 °F 65.7 °F 89% 29.99 in 10.0 mi NNE 10.4 mph - N/A   Overcast
5:14 AM 68.0 °F 64.4 °F 88% 30.00 in 10.0 mi NE 5.8 mph - N/A   Overcast
5:55 AM 67.3 °F 64.0 °F 89% 30.02 in 10.0 mi North 6.9 mph - N/A   Overcast
6:21 AM 66.2 °F 64.4 °F 94% 30.03 in 10.0 mi North 5.8 mph - N/A   Overcast
6:52 AM 66.2 °F 62.6 °F 88% 30.02 in 10.0 mi NE 8.1 mph - N/A   Overcast
6:55 AM 66.2 °F 62.6 °F 88% 30.02 in 10.0 mi NE 9.2 mph - N/A   Overcast
7:55 AM 65.8 °F 62.6 °F 89% 30.04 in 10.0 mi NE 6.9 mph - N/A   Overcast
8:11 AM 66.2 °F 62.6 °F 88% 30.04 in 10.0 mi ENE 8.1 mph - N/A   Overcast
8:55 AM 66.6 °F 63.9 °F 91% 30.06 in 10.0 mi NE 5.8 mph - N/A   Overcast
9:55 AM 68.0 °F 64.6 °F 89% 30.06 in 10.0 mi NE 8.1 mph - N/A   Overcast
10:28 AM 69.8 °F 64.4 °F 83% 30.06 in 10.0 mi ENE 8.1 mph - N/A   Overcast
10:33 AM 69.8 °F 64.4 °F 83% 30.06 in 10.0 mi East 8.1 mph - N/A   Overcast
10:39 AM 69.8 °F 66.2 °F 88% 30.05 in 10.0 mi NE 6.9 mph - N/A   Overcast
10:55 AM 69.8 °F 65.5 °F 86% 30.06 in 10.0 mi ENE 6.9 mph - N/A   Overcast
11:55 AM 70.0 °F 65.5 °F 86% 30.06 in 10.0 mi NNE 6.9 mph - N/A   Overcast
12:06 PM 69.8 °F 64.4 °F 83% 30.06 in 10.0 mi North 5.8 mph - N/A   Overcast
12:55 PM 71.4 °F 65.1 °F 80% 30.04 in 10.0 mi North 6.9 mph - N/A   Overcast
1:55 PM 70.9 °F 64.6 °F 80% 30.01 in 10.0 mi NNW 6.9 mph - N/A   Overcast
2:55 PM 69.1 °F 63.9 °F 83% 30.00 in 10.0 mi North 10.4 mph - N/A   Overcast
3:03 PM 68.0 °F 64.4 °F 88% 30.01 in 10.0 mi North 9.2 mph - N/A   Overcast
3:48 PM 66.2 °F 62.6 °F 88% 30.01 in 9.0 mi NNW 12.7 mph - N/A Rain Light Rain
3:55 PM 66.0 °F 62.8 °F 89% 30.00 in 7.0 mi NNW 12.7 mph - 0.01 in Rain Light Rain
4:11 PM 64.4 °F 62.6 °F 94% 30.01 in 10.0 mi NNW 12.7 mph - N/A   Overcast
4:31 PM 64.4 °F 60.8 °F 88% 30.01 in 10.0 mi NNW 11.5 mph - N/A Rain Light Rain
4:55 PM 62.6 °F 60.4 °F 93% 30.02 in 10.0 mi NNW 11.5 mph - 0.01 in Rain Light Rain
5:16 PM 62.6 °F 59.0 °F 88% 30.03 in 10.0 mi North 10.4 mph - N/A   Overcast
5:25 PM 62.6 °F 59.0 °F 88% 30.03 in 10.0 mi NNW 11.5 mph - N/A Rain Light Rain
5:45 PM 60.8 °F 59.0 °F 94% 30.02 in 10.0 mi Variable 5.8 mph - N/A   Light Drizzle
5:55 PM 61.3 °F 59.0 °F 92% 30.03 in 10.0 mi North 5.8 mph - 0.00 in   Light Drizzle
5:58 PM 60.8 °F 59.0 °F 94% 30.03 in 10.0 mi NNW 8.1 mph - N/A   Overcast
6:06 PM 60.8 °F 59.0 °F 94% 30.04 in 10.0 mi North 6.9 mph - N/A Rain Light Rain
6:09 PM 60.8 °F 59.0 °F 94% 30.04 in 10.0 mi North 5.8 mph - N/A Rain Light Rain
6:16 PM 60.8 °F 59.0 °F 94% 30.03 in 3.0 mi North 10.4 mph - N/A Rain Heavy Rain
6:20 PM 60.8 °F 59.0 °F 94% 30.03 in 3.0 mi North 8.1 mph - N/A Rain Light Rain
6:31 PM 60.8 °F 59.0 °F 94% 30.03 in 10.0 mi North 11.5 mph - N/A   Overcast
6:38 PM 60.8 °F 59.0 °F 94% 30.02 in 10.0 mi North 11.5 mph - N/A   Overcast
6:55 PM 60.6 °F 58.8 °F 94% 30.02 in 10.0 mi North 11.5 mph - 0.06 in   Overcast
6:59 PM 60.8 °F 59.0 °F 94% 30.02 in 10.0 mi North 12.7 mph - N/A   Overcast
7:05 PM 60.8 °F 59.0 °F 94% 30.02 in 10.0 mi North 12.7 mph - N/A   Overcast
7:20 PM 60.8 °F 59.0 °F 94% 30.03 in 10.0 mi North 10.4 mph 20.7 mph N/A   Overcast
7:29 PM 60.8 °F 59.0 °F 94% 30.04 in 10.0 mi NNW 11.5 mph - N/A   Overcast
7:46 PM 59.0 °F 59.0 °F 100% 30.05 in 10.0 mi North 10.4 mph - N/A   Overcast
7:55 PM 59.5 °F 58.1 °F 95% 30.05 in 10.0 mi North 9.2 mph - N/A   Overcast
8:01 PM 59.0 °F 57.2 °F 94% 30.05 in 10.0 mi North 6.9 mph - N/A   Overcast
8:55 PM 59.0 °F 57.0 °F 93% 30.06 in 10.0 mi North 11.5 mph - N/A   Overcast
8:58 PM 59.0 °F 57.2 °F 94% 30.06 in 10.0 mi North 11.5 mph - N/A   Overcast
9:06 PM 59.0 °F 57.2 °F 94% 30.06 in 10.0 mi North 11.5 mph - N/A   Overcast
9:32 PM 59.0 °F 57.2 °F 94% 30.07 in 10.0 mi North 11.5 mph 18.4 mph N/A   Overcast
9:41 PM 59.0 °F 57.2 °F 94% 30.07 in 10.0 mi North 11.5 mph 19.6 mph N/A   Overcast
9:55 PM 58.6 °F 56.7 °F 93% 30.08 in 10.0 mi NNW 10.4 mph - N/A   Overcast
10:11 PM 59.0 °F 57.2 °F 94% 30.07 in 10.0 mi North 9.2 mph - N/A   Overcast
10:48 PM 59.0 °F 55.4 °F 88% 30.08 in 10.0 mi North 9.2 mph - N/A   Overcast
10:55 PM 58.1 °F 56.1 °F 93% 30.08 in 10.0 mi North 11.5 mph 16.1 mph N/A   Overcast
11:08 PM 57.2 °F 55.4 °F 94% 30.09 in 10.0 mi North 10.4 mph - N/A   Overcast
11:10 PM 57.2 °F 55.4 °F 94% 30.09 in 10.0 mi NNW 10.4 mph - N/A   Overcast
11:55 PM 57.2 °F 55.0 °F 92% 30.09 in 10.0 mi North 10.4 mph - N/A   Overcast